ONEWEB-0085, 45438

Orbit data source: Space-Track

ONEWEB-0085, 45438 is a payload satellite owned by One Web (UK) in LEO that was launched on Sat, 21 Mar 2020 UTC via a SOYUZ-2-1B launch vehicle from the Tyuratam Missile And Space Complex (TTMTR). Payload-class satellites include a variety of spacecraft equipped with specific instruments for various scientific and technological missions. These include communications satellites like Starlink; space stations such as the ISS; scientific satellites like the Hubble; Earth observation satellites from companies like Planet Labs, Umbra, and HawkEye 360; GPS; miniature CubeSats for education and research; and military/defense satellites.

Loading next visibility...
Identifier
45438, 2020-020Q
Orbit
LEO
Country
Flag of UKUK
Related business
Manufacturer
One Web
Mission
Operational Commercial Communications
Bus & Motor
ARROW, Unknown motor
Mass
148 kg wet, ~140 kg dry
Launch date (UTC)
2020-03-21 (6 years ago)
Launch vehicle
SOYUZ-2-1B
Launch site
Tyuratam Missile And Space Complex (TTMTR)
Object type
Payload
Rocket body
Debris
Shape & HBR
Trap Box + 2 Pan, 6.7 m
Radar Cross Section
3.464 m², Large (>1 m²)

Expand to show TLE details & history
Last TLE update: 15 hours ago

TLE from 15 hours ago
0 ONEWEB-0085
1 45438U 20020Q   25286.84546189  .00000553  00000-0  15256-2 0  9990
2 45438  87.8811  70.1331 0001640  94.3003 265.8313 13.11418919270380
Epoch: 2025-10-13T20:17Z
TLE epoch observation values (Epoch: 2025-10-13T20:17:27.907Z)
Latitude
0.00005°
Longitude
103.12443°
Altitude
1,220.655 km
Speed
7.244 km/s
True Right ascension
04h 40m 31s
True Declination
0° 00' 00"
Sunlit
Object was in full shadow at epoch
Visualization orbit readout
Latitude
Unknown
Longitude
Unknown
Altitude
Unknown
Speed
Unknown
Apparent Right ascension
Unknown
Apparent Declination
Unknown
Sunlit
N/A
Visualization observer readout
Local Sidereal Time
06:13:26
Azimuth
Unknown
Elevation
Unknown
Doppler factor
Unknown
Orbital elements
Apogee altitude
1,216.039 km
Perigee altitude
1,213.548 km
Semi-major axis
7,592.93 km
Eccentricity
0.00016
Inclination
87.8811°
RAAN
70.1331°
Arg. of periapsis
94.3003°
True anomaly
265.81256°
Mean anomaly
265.8313°
Eccentric anomaly
265.82193°
Mean motion
3.28042 °/min
Orbital period
109.74 mins
BSTAR
0.0015256
Loading maneuver chart data...
Computing Atmospheric mass density...
Loading historical data...
Loading historical data...
Loading historical data...
Loading historical data...
Loading historical data...
Loading historical data...
Loading historical data...

Documentation

Showing up to 5 results
|